When you browse on this site, cookies collect data to enhance your experience and personalize the content and advertising you see.
Visit our Privacy Policy to learn more. By continuing to use the site, you agree to this use of cookies and data.
  • In Hungary
  • List of Countries
  • For 7 days
  • Water Temperature
  • Satellite Maps
  • Weather Map
  • News
  • Weather Widgets
  • user-avatar
    Login

    Hourly Weather Manises

    Today, 19 January, Saturday

    Time Temperature Precipitation Wind Pressure Humidity
    00:00 +7°C° 0 mm 3 mps 758 mmHg 47%
    01:00 +5°C° 0 mm 3 mps 758 mmHg 47%
    02:00 +5°C° 0 mm 3 mps 758 mmHg 48%
    03:00 +5°C° 0 mm 3 mps 757 mmHg 48%
    04:00 +4°C° 0 mm 3 mps 757 mmHg 50%
    05:00 +4°C° 0 mm 3 mps 758 mmHg 52%
    06:00 +4°C° 0 mm 3 mps 758 mmHg 54%
    07:00 +5°C° 0 mm 3 mps 758 mmHg 53%
    08:00 +7°C° 0 mm 3 mps 758 mmHg 52%
    09:00 +8°C° 0 mm 3 mps 758 mmHg 51%
    10:00 +10°C° 0 mm 4 mps 757 mmHg 47%
    11:00 +12°C° 0 mm 4 mps 757 mmHg 43%
    12:00 +14°C° 0 mm 4 mps 757 mmHg 39%
    13:00 +15°C° 0 mm 4 mps 756 mmHg 38%
    14:00 +15°C° 0 mm 4 mps 755 mmHg 37%
    15:00 +15°C° 0 mm 4 mps 755 mmHg 36%
    16:00 +14°C° 0 mm 4 mps 755 mmHg 41%
    17:00 +13°C° 0 mm 3 mps 754 mmHg 45%
    18:00 +11°C° 0 mm 3 mps 754 mmHg 50%
    19:00 +11°C° 0.6 mm 3 mps 754 mmHg 59%
    20:00 +10°C° 0.6 mm 2 mps 754 mmHg 68%
    21:00 +9°C° 0.6 mm 2 mps 754 mmHg 78%
    22:00 +9°C° 0.3 mm 2 mps 754 mmHg 78%
    23:00 +10°C° 0.3 mm 1 mps 753 mmHg 79%

    Tomorrow, 20 January, Sunday

    Time Temperature Precipitation Wind Pressure Humidity
    00:00 +10°C° 0.3 mm 1 mps 753 mmHg 80%
    01:00 +10°C° 0.1 mm 1 mps 752 mmHg 81%
    02:00 +10°C° 0.1 mm 1 mps 752 mmHg 82%
    03:00 +9°C° 0.1 mm 2 mps 751 mmHg 83%
    04:00 +9°C° 0.6 mm 2 mps 751 mmHg 84%
    05:00 +10°C° 0.6 mm 2 mps 751 mmHg 85%
    06:00 +10°C° 0.6 mm 2 mps 751 mmHg 86%
    07:00 +10°C° 0.6 mm 2 mps 751 mmHg 86%
    08:00 +10°C° 0.6 mm 2 mps 751 mmHg 85%
    09:00 +10°C° 0.6 mm 2 mps 752 mmHg 85%
    10:00 +12°C° 0.4 mm 2 mps 752 mmHg 81%
    11:00 +12°C° 0.4 mm 2 mps 752 mmHg 76%
    12:00 +13°C° 0.4 mm 2 mps 752 mmHg 71%
    13:00 +13°C° 0.1 mm 1 mps 752 mmHg 69%
    14:00 +14°C° 0.1 mm 1 mps 752 mmHg 66%
    15:00 +14°C° 0.1 mm 1 mps 752 mmHg 64%
    16:00 +13°C° 0.1 mm 1 mps 753 mmHg 67%
    17:00 +12°C° 0.1 mm 2 mps 754 mmHg 69%
    18:00 +10°C° 0.1 mm 2 mps 754 mmHg 72%
    19:00 +9°C° 0 mm 2 mps 755 mmHg 72%
    20:00 +8°C° 0 mm 3 mps 755 mmHg 72%
    21:00 +8°C° 0 mm 3 mps 756 mmHg 72%
    22:00 +7°C° 0 mm 3 mps 756 mmHg 72%
    23:00 +7°C° 0 mm 3 mps 757 mmHg 72%

    Day after tomorrow, 21 January, Monday

    Time Temperature Precipitation Wind Pressure Humidity
    00:00 +7°C° 0 mm 3 mps 757 mmHg 72%
    01:00 +5°C° 0 mm 3 mps 757 mmHg 72%
    02:00 +5°C° 0 mm 3 mps 757 mmHg 73%
    03:00 +5°C° 0 mm 3 mps 758 mmHg 74%
    04:00 +5°C° 0 mm 3 mps 758 mmHg 74%
    05:00 +4°C° 0 mm 3 mps 758 mmHg 75%
    06:00 +4°C° 0 mm 3 mps 758 mmHg 76%
    07:00 +5°C° 0 mm 3 mps 758 mmHg 72%
    08:00 +7°C° 0 mm 3 mps 759 mmHg 68%
    09:00 +8°C° 0 mm 3 mps 759 mmHg 65%
    10:00 +10°C° 0 mm 3 mps 759 mmHg 57%
    11:00 +12°C° 0 mm 3 mps 759 mmHg 49%
    12:00 +14°C° 0 mm 3 mps 759 mmHg 41%
    13:00 +14°C° 0 mm 2 mps 759 mmHg 42%
    14:00 +14°C° 0 mm 2 mps 759 mmHg 43%
    15:00 +14°C° 0 mm 2 mps 758 mmHg 44%
    16:00 +13°C° 0 mm 2 mps 759 mmHg 47%
    17:00 +12°C° 0 mm 2 mps 759 mmHg 50%
    18:00 +9°C° 0 mm 3 mps 760 mmHg 53%
    19:00 +8°C° 0 mm 3 mps 760 mmHg 55%
    20:00 +6°C° 0 mm 4 mps 761 mmHg 57%
    21:00 +6°C° 0 mm 4 mps 761 mmHg 59%
    22:00 +5°C° 0 mm 4 mps 761 mmHg 60%
    23:00 +5°C° 0 mm 4 mps 761 mmHg 62%

    22 January, Tuesday

    Time Temperature Precipitation Wind Pressure Humidity
    00:00 +4°C° 0 mm 4 mps 761 mmHg 63%
    01:00 +4°C° 0 mm 4 mps 761 mmHg 64%
    02:00 +3°C° 0 mm 3 mps 761 mmHg 65%
    03:00 +3°C° 0 mm 3 mps 761 mmHg 66%
    04:00 +3°C° 0 mm 3 mps 760 mmHg 66%
    05:00 +1°C° 0 mm 4 mps 760 mmHg 66%
    06:00 +1°C° 0 mm 4 mps 760 mmHg 65%
    07:00 +4°C° 0 mm 4 mps 760 mmHg 61%
    08:00 +5°C° 0 mm 4 mps 759 mmHg 56%
    09:00 +7°C° 0 mm 5 mps 759 mmHg 52%
    10:00 +8°C° 0 mm 5 mps 758 mmHg 48%
    11:00 +10°C° 0 mm 6 mps 758 mmHg 44%
    12:00 +12°C° 0 mm 7 mps 757 mmHg 39%
    13:00 +12°C° 0 mm 7 mps 756 mmHg 42%
    14:00 +12°C° 0 mm 8 mps 755 mmHg 44%
    15:00 +12°C° 0 mm 8 mps 754 mmHg 46%
    16:00 +11°C° 0 mm 7 mps 753 mmHg 48%
    17:00 +10°C° 0 mm 7 mps 753 mmHg 50%
    18:00 +9°C° 0 mm 6 mps 753 mmHg 52%
    19:00 +9°C° 0 mm 6 mps 752 mmHg 54%
    20:00 +9°C° 0 mm 6 mps 752 mmHg 57%
    21:00 +9°C° 0 mm 6 mps 752 mmHg 59%
    22:00 +8°C° 0 mm 6 mps 752 mmHg 57%
    23:00 +8°C° 0 mm 7 mps 751 mmHg 55%

    23 January, Wednesday

    Time Temperature Precipitation Wind Pressure Humidity
    00:00 +6°C° 0 mm 7 mps 751 mmHg 53%
    01:00 +6°C° 0 mm 7 mps 750 mmHg 53%
    02:00 +6°C° 0 mm 7 mps 750 mmHg 54%
    03:00 +7°C° 0 mm 6 mps 749 mmHg 55%
    04:00 +5°C° 0 mm 6 mps 749 mmHg 54%
    05:00 +5°C° 0 mm 6 mps 749 mmHg 54%
    06:00 +5°C° 0 mm 6 mps 749 mmHg 53%
    07:00 +7°C° 0 mm 6 mps 749 mmHg 51%
    08:00 +6°C° 0 mm 7 mps 749 mmHg 49%
    09:00 +7°C° 0 mm 8 mps 749 mmHg 47%
    10:00 +9°C° 0.2 mm 8 mps 748 mmHg 49%
    11:00 +9°C° 0.2 mm 8 mps 748 mmHg 51%
    12:00 +9°C° 0.2 mm 8 mps 747 mmHg 53%
    13:00 +8°C° 0.6 mm 7 mps 746 mmHg 59%
    14:00 +8°C° 0.6 mm 6 mps 745 mmHg 64%
    15:00 +7°C° 0.6 mm 5 mps 745 mmHg 70%
    16:00 +6°C° 0 mm 4 mps 745 mmHg 70%
    17:00 +5°C° 0 mm 3 mps 746 mmHg 71%
    18:00 +6°C° 0 mm 2 mps 747 mmHg 71%
    19:00 +4°C° 0 mm 3 mps 747 mmHg 68%
    20:00 +4°C° 0 mm 4 mps 748 mmHg 65%
    21:00 +2°C° 0 mm 6 mps 749 mmHg 62%
    22:00 +2°C° 0 mm 5 mps 748 mmHg 62%
    23:00 +2°C° 0 mm 5 mps 748 mmHg 63%

    24 January, Thursday

    Time Temperature Precipitation Wind Pressure Humidity
    00:00 +1°C° 0 mm 5 mps 748 mmHg 63%
    01:00 +1°C° 0 mm 5 mps 748 mmHg 63%
    02:00 +1°C° 0 mm 5 mps 748 mmHg 63%
    03:00 +1°C° 0 mm 5 mps 747 mmHg 63%
    04:00 +1°C° 0 mm 5 mps 747 mmHg 62%
    05:00 +1°C° 0 mm 5 mps 747 mmHg 62%
    06:00 0°C° 0 mm 5 mps 747 mmHg 62%
    07:00 +2°C° 0 mm 6 mps 747 mmHg 56%
    08:00 +3°C° 0 mm 7 mps 747 mmHg 50%
    09:00 +4°C° 0 mm 8 mps 747 mmHg 45%
    10:00 +5°C° 0 mm 8 mps 747 mmHg 37%
    11:00 +6°C° 0 mm 9 mps 747 mmHg 30%
    12:00 +8°C° 0 mm 10 mps 747 mmHg 23%
    13:00 +8°C° 0 mm 9 mps 747 mmHg 25%
    14:00 +7°C° 0 mm 8 mps 747 mmHg 27%
    15:00 +8°C° 0 mm 6 mps 747 mmHg 29%
    16:00 +5°C° 0 mm 6 mps 747 mmHg 34%
    17:00 +5°C° 0 mm 5 mps 748 mmHg 39%
    18:00 +2°C° 0 mm 5 mps 748 mmHg 45%
    19:00 +1°C° 0 mm 5 mps 749 mmHg 45%
    20:00 +1°C° 0 mm 5 mps 750 mmHg 46%
    21:00 +1°C° 0 mm 4 mps 751 mmHg 47%
    22:00 0°C° 0 mm 4 mps 751 mmHg 50%
    23:00 0°C° 0 mm 4 mps 752 mmHg 53%
    Show more